Theta_e
334 335 337 337 337 337 338 337 338 339 342 342 342 340 340 339 334 330 327 322 317 314
331 334 334 336 336 337 338 339 338 340 341 341 341 341 338 336 331 328 321 320 316 313
329 334 334 335 335 335 336 337 338 340 340 339 340 339 338 333 328 324 321 319 314 313
327 331 331 332 334 336 337 337 337 336 336 338 338 336 334 330 325 323 320 316 314 312
323 326 328 332 334 336 336 337 336 335 334 335 336 331 329 327 325 321 317 314 314 314
320 323 328 332 335 336 336 334 336 337 335 335 332 329 328 327 325 320 317 315 315 312
317 320 326 332 332 334 335 335 334 337 335 334 333 330 328 325 322 317 315 314 316 314
318 319 319 327 329 332 333 336 335 335 333 333 332 329 326 323 320 317 314 315 314 314
317 320 319 322 329 329 332 332 334 333 332 330 331 314 315 319 318 316 314 310 310 312
315 319 320 323 329 328 330 329 330 330 329 327 328 310 311 313 316 314 310 308 305 305
314 316 317 322 326 329 330 330 330 328 326 326 320 309 309 311 313 311 307 306 303 302
313 315 314 315 323 327 329 329 329 327 325 323 315 306 306 312 311 307 304 304 302 300
314 316 314 313 322 326 325 327 328 326 325 317 312 303 304 310 310 305 304 302 302 301
314 318 316 315 322 324 325 324 323 322 319 314 311 307 303 305 310 307 306 303 302 300
Wind_Speed
10 8 10 11 10 8 9 11 15 14 12 13 9 8 7 6 5 6 6 8 5 4
7 9 10 9 9 9 12 12 15 14 11 10 9 12 10 7 7 6 5 6 7 5
8 10 10 8 10 11 13 14 16 14 13 12 12 12 12 8 7 8 5 5 8 5
7 8 8 8 11 13 13 16 17 14 15 13 16 12 11 9 10 10 8 7 9 7
7 6 7 9 11 13 14 15 16 16 17 13 15 11 11 12 11 12 11 10 7 8
8 7 8 10 12 13 15 16 15 19 20 19 12 11 11 11 10 10 10 11 9 8
9 8 8 10 14 15 15 18 17 14 14 14 11 13 12 12 11 10 10 10 9 10
12 9 8 9 14 15 13 14 22 17 14 13 13 11 14 13 12 11 11 9 8 7
10 10 9 9 12 16 14 9 13 15 16 18 12 16 16 15 13 12 12 10 8 8
9 10 10 8 10 14 15 13 11 16 16 16 14 19 19 18 11 12 11 11 11 8
9 9 9 7 9 15 13 14 14 15 17 15 10 22 20 18 13 11 12 11 9 12
10 11 6 6 8 8 12 14 11 16 18 18 14 21 22 20 15 13 12 10 10 12
9 10 5 6 8 10 9 17 15 15 18 20 18 25 23 20 12 13 10 7 10 13
10 8 8 7 6 10 13 11 9 14 13 16 19 17 23 22 12 12 11 10 8 8
Wind_Direction
238 217 218 213 209 219 203 206 201 202 208 223 173 191 189 175 177 169 170 165 164 159
267 231 224 201 210 221 205 206 207 194 196 242 188 188 187 167 180 153 154 150 139 131
244 245 221 204 198 211 209 198 197 185 177 209 236 190 180 162 174 158 142 141 140 144
271 250 233 205 212 200 196 200 192 177 182 202 206 193 167 165 166 152 140 137 151 159
288 262 234 201 205 201 194 196 179 175 179 208 201 179 162 168 170 153 152 150 154 151
291 278 248 207 198 195 198 192 181 184 190 183 178 172 165 169 162 161 156 148 165 147
291 281 253 222 193 193 202 185 190 187 168 163 161 186 172 162 160 160 153 156 152 147
293 282 268 238 197 188 196 192 181 177 170 169 184 186 167 159 161 162 153 146 132 143
286 268 253 244 205 191 187 187 159 165 170 177 183 174 158 153 160 158 152 139 126 128
273 269 260 250 196 192 200 190 172 164 169 174 175 164 159 154 153 154 139 137 139 126
264 263 251 251 221 184 186 199 200 182 168 165 163 159 159 147 142 145 139 145 144 131
269 272 240 221 233 192 169 219 187 179 165 161 158 159 152 148 144 147 142 146 138 137
262 276 257 212 198 184 178 195 218 175 174 168 154 159 152 148 143 142 136 144 133 133
262 265 279 220 199 177 154 142 190 162 164 152 152 163 148 145 148 148 144 144 144 146